Weather History for KGLD - July, 2014

Change the Weather History Date:

Friday, July 18, 2014

  Actual Average Record
Temperature  
Mean Temperature 71 °F 76 °F  
Max Temperature 86 °F 90 °F 106 °F (1936)
Min Temperature 56 °F 62 °F 50 °F (1972)
Degree Days  
Heating Degree Days 0 0  
Month to date heating degree days 13 0  
Since 1 June heating degree days 51 37  
Since 1 July heating degree days 13 0  
Cooling Degree Days 6 11  
Month to date cooling degree days 146 191  
Year to date cooling degree days 341 411  
Since 1 June cooling degree days 295 370  
Growing Degree Days 22 (Base 50)    
Moisture  
Dew Point 59 °F    
Average Humidity 69    
Maximum Humidity 93    
Minimum Humidity 44    
Precipitation  
Precipitation 0.29 in 0.11 in 3.65 in (1985)
Month to date precipitation 1.73 2.00  
Year to date precipitation 10.80 11.73  
Snow  
Snow 0.00 in 0.00 in - ()
Month to date snowfall 0.0 0.0  
Since 1 June snowfall 0.0 0.0  
Since 1 July snowfall 0.0 0.0  
Snow Depth 0.00 in    
Sea Level Pressure  
Sea Level Pressure 29.94 in    
Wind  
Wind Speed 17 mph (South)    
Max Wind Speed 30 mph    
Max Gust Speed 39 mph    
Visibility 9 miles    
Events Rain , Thunderstorm    
T = Trace of Precipitation, MM = Missing Value Source: NWS Daily Summary

Daily Weather History Graph

Daily Weather History Graph

Search for Another Location

Airport or City:

Trip Planner

Search our weather history database for the weather conditions in past years. The results will help you decide how hot, cold, wet, or windy it might be!

Date:

Astronomy

Jul. 18, 2014 Rise Set
Actual Time 5:34 AM MDT 8:10 PM MDT
Civil Twilight 5:03 AM MDT 8:41 PM MDT
Nautical Twilight 4:24 AM MDT 9:20 PM MDT
Astronomical Twilight 3:41 AM MDT 10:04 PM MDT
Moon No Moon Rise 12:51 PM MDT (7/18)
Length of Visible Light 15h 38m
Length of Day
14h 36m
Waning Gibbous, 54% of the Moon is Illuminated
Jul 18
Waning Gibbous
Jul 18
Last Quarter
Jul 26
New
Aug 3
First Quarter
Aug 10
Full

Hourly Weather History & Observations

Time (MDT) Temp. Heat Index Dew Point Humidity Pressure Visibility Wind Dir Wind Speed Gust Speed Precip Events Conditions
12:34 AM 57.0 °F - 55.9 °F 96% 30.11 in 10.0 mi South 10.4 mph - N/A   Mostly Cloudy
12:50 AM 57.2 °F - 55.4 °F 94% 30.11 in 10.0 mi SSW 13.8 mph - N/A   Overcast
12:53 AM 57.0 °F - 55.9 °F 96% 30.04 in 10.0 mi South 15.0 mph - N/A   Overcast
1:01 AM 57.0 °F - 55.9 °F 96% 30.10 in 10.0 mi South 16.1 mph - N/A   Overcast
1:53 AM 57.0 °F - 55.9 °F 96% 30.02 in 10.0 mi SSW 10.4 mph - N/A   Overcast
2:53 AM 57.0 °F - 55.9 °F 96% 29.99 in 9.0 mi South 12.7 mph - N/A   Overcast
3:53 AM 57.0 °F - 55.0 °F 93% 29.99 in 9.0 mi SSW 12.7 mph - N/A   Overcast
4:53 AM 57.0 °F - 55.0 °F 93% 29.98 in 9.0 mi SSW 13.8 mph - N/A   Overcast
5:53 AM 57.0 °F - 55.0 °F 93% 29.97 in 7.0 mi South 10.4 mph - N/A   Overcast
6:53 AM 57.9 °F - 55.9 °F 93% 29.97 in 9.0 mi South 15.0 mph - N/A   Overcast
7:53 AM 59.0 °F - 55.9 °F 90% 29.97 in 10.0 mi South 18.4 mph 25.3 mph N/A   Overcast
8:53 AM 60.1 °F - 57.0 °F 90% 29.97 in 10.0 mi South 21.9 mph - N/A   Overcast
9:53 AM 62.1 °F - 57.9 °F 86% 29.96 in 10.0 mi South 16.1 mph 23.0 mph N/A   Overcast
10:22 AM 66.0 °F - 59.0 °F 78% 30.02 in 10.0 mi South 13.8 mph - N/A   Mostly Cloudy
10:36 AM 68.0 °F - 59.0 °F 73% 30.02 in 10.0 mi South 15.0 mph - N/A   Partly Cloudy
10:53 AM 70.0 °F - 60.1 °F 71% 29.93 in 10.0 mi South 17.3 mph - N/A   Clear
11:53 AM 73.9 °F - 60.1 °F 62% 29.91 in 10.0 mi South 16.1 mph 26.5 mph N/A   Clear
12:53 PM 78.8 °F - 60.8 °F 54% 29.98 in 10.0 mi South 19.6 mph 26.5 mph N/A   Clear
1:53 PM 81.0 °F 81.7 °F 61.0 °F 50% 29.85 in 10.0 mi South 18.4 mph 26.5 mph N/A   Clear
2:53 PM 84.0 °F 84.4 °F 61.0 °F 46% 29.82 in 10.0 mi South 17.3 mph 24.2 mph N/A   Clear
3:53 PM 84.9 °F 84.8 °F 60.1 °F 43% 29.81 in 10.0 mi South 17.3 mph - N/A   Clear
4:53 PM 84.9 °F 84.8 °F 60.1 °F 43% 29.81 in 10.0 mi South 18.4 mph - 0.00 in   Clear
5:53 PM 82.9 °F 82.8 °F 59.0 °F 44% 29.80 in 10.0 mi SSE 24.2 mph 31.1 mph N/A   Clear
6:53 PM 80.1 °F 80.9 °F 60.1 °F 50% 29.83 in 10.0 mi SSE 19.6 mph 26.5 mph N/A   Clear
7:37 PM 75.9 °F - 60.1 °F 58% 29.93 in 10.0 mi SSE 20.7 mph 26.5 mph N/A Thunderstorm Partly Cloudy
7:53 PM 75.0 °F - 61.0 °F 62% 29.82 in 10.0 mi SSE 18.4 mph - N/A Thunderstorm Partly Cloudy
8:01 PM 75.0 °F - 61.0 °F 62% 29.96 in 10.0 mi East 19.6 mph 25.3 mph N/A Thunderstorm Thunderstorm
8:10 PM 75.0 °F - 61.0 °F 62% 30.01 in 10.0 mi NE 25.3 mph 29.9 mph N/A Thunderstorm Thunderstorm
8:18 PM 70.0 °F - 63.0 °F 78% 30.05 in 5.0 mi East 16.1 mph 32.2 mph 0.04 in Rain , Thunderstorm Heavy Thunderstorms and Rain
8:25 PM 69.1 °F - 64.0 °F 84% 30.02 in 3.0 mi SSE 18.4 mph 32.2 mph 0.17 in Rain , Thunderstorm Heavy Thunderstorms and Rain
8:53 PM 69.1 °F - 64.9 °F 87% 29.90 in 8.0 mi South 24.2 mph 35.7 mph 0.28 in Rain , Thunderstorm Light Thunderstorms and Rain
9:21 PM 66.9 °F - 63.0 °F 87% 29.97 in 10.0 mi South 20.7 mph 29.9 mph 0.01 in Thunderstorm Scattered Clouds
9:30 PM 68.0 °F - 62.1 °F 81% 29.97 in 10.0 mi South 21.9 mph 31.1 mph 0.01 in   Partly Cloudy
9:53 PM 68.0 °F - 57.0 °F 68% 29.86 in 10.0 mi South 17.3 mph - 0.01 in   Clear
10:53 PM 66.0 °F - 62.1 °F 87% 29.87 in 10.0 mi South 16.1 mph - N/A   Clear
11:53 PM 66.9 °F - 63.0 °F 87% 29.87 in 10.0 mi South 21.9 mph 32.2 mph N/A   Clear